Meteo orario Ababuj

Oggi, 18 Giugno, Venerdi

Tempo Temperatura Precipitazioni Vento Pressione Umidità
00:00 +13°C° 0 mm 2 m/s 646 mm Hg 73%
01:00 +13°C° 0 mm 1 m/s 646 mm Hg 72%
02:00 +13°C° 0 mm 1 m/s 646 mm Hg 72%
03:00 +13°C° 0 mm 1 m/s 646 mm Hg 72%
04:00 +13°C° 0 mm 1 m/s 646 mm Hg 68%
05:00 +14°C° 0 mm 1 m/s 647 mm Hg 65%
06:00 +15°C° 0 mm 1 m/s 647 mm Hg 62%
07:00 +16°C° 0 mm 1 m/s 647 mm Hg 56%
08:00 +18°C° 0 mm 2 m/s 648 mm Hg 50%
09:00 +20°C° 0 mm 2 m/s 648 mm Hg 44%
10:00 +21°C° 0 mm 3 m/s 649 mm Hg 42%
11:00 +22°C° 0 mm 4 m/s 649 mm Hg 40%
12:00 +23°C° 0 mm 5 m/s 649 mm Hg 39%
13:00 +23°C° 0 mm 5 m/s 649 mm Hg 41%
14:00 +22°C° 0 mm 6 m/s 649 mm Hg 42%
15:00 +22°C° 0 mm 6 m/s 648 mm Hg 44%
16:00 +21°C° 0 mm 6 m/s 648 mm Hg 47%
17:00 +20°C° 0 mm 5 m/s 648 mm Hg 50%
18:00 +19°C° 0 mm 5 m/s 648 mm Hg 53%
19:00 +17°C° 0 mm 5 m/s 648 mm Hg 61%
20:00 +17°C° 0 mm 4 m/s 648 mm Hg 68%
21:00 +14°C° 0 mm 3 m/s 648 mm Hg 76%
22:00 +14°C° 0 mm 3 m/s 648 mm Hg 76%
23:00 +15°C° 0 mm 2 m/s 648 mm Hg 77%

Domani, 19 Giugno, Sabato

Tempo Temperatura Precipitazioni Vento Pressione Umidità
00:00 +14°C° 0 mm 2 m/s 648 mm Hg 78%
01:00 +14°C° 0 mm 2 m/s 647 mm Hg 76%
02:00 +14°C° 0 mm 2 m/s 647 mm Hg 73%
03:00 +14°C° 0 mm 2 m/s 647 mm Hg 71%
04:00 +15°C° 0 mm 2 m/s 647 mm Hg 69%
05:00 +15°C° 0 mm 1 m/s 647 mm Hg 67%
06:00 +16°C° 0 mm 1 m/s 647 mm Hg 66%
07:00 +17°C° 0 mm 2 m/s 647 mm Hg 62%
08:00 +18°C° 0 mm 2 m/s 648 mm Hg 58%
09:00 +19°C° 0 mm 3 m/s 648 mm Hg 54%
10:00 +19°C° 0.1 mm 3 m/s 648 mm Hg 52%
11:00 +20°C° 0.1 mm 3 m/s 648 mm Hg 50%
12:00 +21°C° 0.1 mm 3 m/s 648 mm Hg 48%
13:00 +20°C° 0.3 mm 4 m/s 648 mm Hg 52%
14:00 +20°C° 0.3 mm 4 m/s 647 mm Hg 56%
15:00 +20°C° 0.3 mm 4 m/s 647 mm Hg 60%
16:00 +19°C° 1.5 mm 4 m/s 647 mm Hg 65%
17:00 +18°C° 1.5 mm 4 m/s 647 mm Hg 69%
18:00 +17°C° 1.5 mm 4 m/s 647 mm Hg 74%
19:00 +16°C° 0.3 mm 3 m/s 647 mm Hg 76%
20:00 +14°C° 0.3 mm 3 m/s 647 mm Hg 78%
21:00 +14°C° 0.3 mm 2 m/s 646 mm Hg 79%
22:00 +14°C° 0 mm 2 m/s 646 mm Hg 78%
23:00 +13°C° 0 mm 2 m/s 646 mm Hg 77%

Dopodomani, 20 Giugno, Domenica

Tempo Temperatura Precipitazioni Vento Pressione Umidità
00:00 +13°C° 0 mm 2 m/s 646 mm Hg 76%
01:00 +12°C° 0 mm 2 m/s 645 mm Hg 77%
02:00 +12°C° 0 mm 2 m/s 645 mm Hg 77%
03:00 +10°C° 0 mm 2 m/s 645 mm Hg 77%
04:00 +11°C° 0 mm 3 m/s 645 mm Hg 76%
05:00 +11°C° 0 mm 3 m/s 645 mm Hg 74%
06:00 +12°C° 0 mm 4 m/s 645 mm Hg 73%
07:00 +12°C° 0 mm 5 m/s 645 mm Hg 67%
08:00 +13°C° 0 mm 5 m/s 645 mm Hg 62%
09:00 +13°C° 0 mm 6 m/s 646 mm Hg 56%
10:00 +15°C° 0 mm 6 m/s 646 mm Hg 53%
11:00 +16°C° 0 mm 6 m/s 646 mm Hg 49%
12:00 +17°C° 0 mm 6 m/s 646 mm Hg 45%
13:00 +19°C° 0 mm 6 m/s 646 mm Hg 43%
14:00 +20°C° 0 mm 7 m/s 646 mm Hg 42%
15:00 +21°C° 0 mm 8 m/s 646 mm Hg 40%
16:00 +20°C° 0 mm 8 m/s 646 mm Hg 42%
17:00 +20°C° 0 mm 7 m/s 646 mm Hg 44%
18:00 +18°C° 0 mm 7 m/s 645 mm Hg 46%
19:00 +16°C° 0 mm 6 m/s 645 mm Hg 52%
20:00 +15°C° 0 mm 4 m/s 645 mm Hg 59%
21:00 +13°C° 0 mm 3 m/s 645 mm Hg 65%
22:00 +12°C° 0 mm 3 m/s 645 mm Hg 68%
23:00 +12°C° 0 mm 3 m/s 645 mm Hg 71%

21 Giugno, Lunedi

Tempo Temperatura Precipitazioni Vento Pressione Umidità
00:00 +11°C° 0 mm 3 m/s 644 mm Hg 74%
01:00 +11°C° 0 mm 3 m/s 644 mm Hg 77%
02:00 +11°C° 0 mm 3 m/s 644 mm Hg 79%
03:00 +10°C° 0 mm 3 m/s 643 mm Hg 81%
04:00 +11°C° 0 mm 4 m/s 644 mm Hg 78%
05:00 +11°C° 0 mm 4 m/s 644 mm Hg 75%
06:00 +12°C° 0 mm 4 m/s 645 mm Hg 72%
07:00 +13°C° 0 mm 5 m/s 645 mm Hg 65%
08:00 +14°C° 0 mm 6 m/s 645 mm Hg 58%
09:00 +15°C° 0 mm 6 m/s 646 mm Hg 51%
10:00 +16°C° 0 mm 6 m/s 646 mm Hg 45%
11:00 +19°C° 0 mm 6 m/s 646 mm Hg 39%
12:00 +20°C° 0 mm 5 m/s 646 mm Hg 33%
13:00 +20°C° 0 mm 6 m/s 646 mm Hg 30%
14:00 +21°C° 0 mm 6 m/s 646 mm Hg 28%
15:00 +21°C° 0 mm 6 m/s 646 mm Hg 25%
16:00 +21°C° 0 mm 6 m/s 646 mm Hg 27%
17:00 +20°C° 0 mm 6 m/s 646 mm Hg 29%
18:00 +19°C° 0 mm 5 m/s 646 mm Hg 32%
19:00 +17°C° 0 mm 4 m/s 646 mm Hg 40%
20:00 +14°C° 0 mm 3 m/s 646 mm Hg 48%
21:00 +13°C° 0 mm 2 m/s 646 mm Hg 57%
22:00 +13°C° 0 mm 2 m/s 645 mm Hg 59%
23:00 +12°C° 0 mm 1 m/s 645 mm Hg 61%

22 Giugno, Martedi

Tempo Temperatura Precipitazioni Vento Pressione Umidità
00:00 +12°C° 0 mm 1 m/s 645 mm Hg 63%
01:00 +11°C° 0 mm 1 m/s 645 mm Hg 65%
02:00 +11°C° 0 mm 1 m/s 645 mm Hg 67%
03:00 +11°C° 0 mm 1 m/s 644 mm Hg 69%
04:00 +11°C° 0 mm 1 m/s 645 mm Hg 67%
05:00 +12°C° 0 mm 1 m/s 645 mm Hg 66%
06:00 +12°C° 0 mm 1 m/s 646 mm Hg 64%
07:00 +14°C° 0 mm 1 m/s 646 mm Hg 58%
08:00 +15°C° 0 mm 1 m/s 646 mm Hg 52%
09:00 +18°C° 0 mm 1 m/s 647 mm Hg 47%
10:00 +18°C° 0.2 mm 2 m/s 647 mm Hg 44%
11:00 +18°C° 0.2 mm 2 m/s 647 mm Hg 41%
12:00 +19°C° 0.2 mm 3 m/s 647 mm Hg 39%
13:00 +19°C° 0.7 mm 3 m/s 647 mm Hg 43%
14:00 +18°C° 0.7 mm 4 m/s 647 mm Hg 48%
15:00 +17°C° 0.7 mm 4 m/s 647 mm Hg 52%
16:00 +15°C° 1.7 mm 4 m/s 647 mm Hg 62%
17:00 +13°C° 1.7 mm 4 m/s 647 mm Hg 71%
18:00 +12°C° 1.7 mm 4 m/s 647 mm Hg 80%
19:00 +11°C° 0.7 mm 4 m/s 648 mm Hg 82%
20:00 +11°C° 0.7 mm 3 m/s 648 mm Hg 83%
21:00 +10°C° 0.7 mm 3 m/s 649 mm Hg 85%
22:00 +10°C° 0 mm 2 m/s 648 mm Hg 87%
23:00 +9°C° 0 mm 2 m/s 648 mm Hg 88%

23 Giugno, Mercoledi

Tempo Temperatura Precipitazioni Vento Pressione Umidità
00:00 +9°C° 0 mm 2 m/s 648 mm Hg 90%
01:00 +8°C° 0 mm 2 m/s 648 mm Hg 90%
02:00 +8°C° 0 mm 2 m/s 648 mm Hg 90%
03:00 +7°C° 0 mm 2 m/s 648 mm Hg 90%
04:00 +8°C° 0 mm 3 m/s 648 mm Hg 88%
05:00 +8°C° 0 mm 3 m/s 648 mm Hg 87%
06:00 +8°C° 0 mm 3 m/s 649 mm Hg 85%
07:00 +10°C° 0 mm 3 m/s 649 mm Hg 77%
08:00 +11°C° 0 mm 3 m/s 649 mm Hg 69%
09:00 +13°C° 0 mm 3 m/s 650 mm Hg 62%
10:00 +14°C° 0 mm 3 m/s 650 mm Hg 56%
11:00 +16°C° 0 mm 3 m/s 651 mm Hg 51%
12:00 +18°C° 0 mm 3 m/s 651 mm Hg 46%
13:00 +18°C° 0 mm 3 m/s 651 mm Hg 44%
14:00 +19°C° 0 mm 3 m/s 651 mm Hg 43%
15:00 +19°C° 0 mm 3 m/s 651 mm Hg 41%
16:00 +19°C° 0 mm 3 m/s 651 mm Hg 45%
17:00 +18°C° 0 mm 4 m/s 651 mm Hg 49%
18:00 +17°C° 0 mm 4 m/s 651 mm Hg 53%
19:00 +16°C° 0 mm 3 m/s 651 mm Hg 57%
20:00 +13°C° 0 mm 3 m/s 651 mm Hg 62%
21:00 +13°C° 0 mm 2 m/s 651 mm Hg 66%
22:00 +13°C° 0 mm 2 m/s 651 mm Hg 68%
23:00 +12°C° 0 mm 1 m/s 651 mm Hg 70%
Mostrare altro

Abbiamo bisogno del tuo consenso

Meteoprog e i nostri fornitori di servizi possono memorizzare e accedere a dati personali come cookie, identificatori di dispositivi o altre tecnologie simili sul tuo dispositivo e possono elaborare tali dati per personalizzare i contenuti e gli annunci, nonché fornire funzionalità dei social media e analizzarne il traffico.

  • Archiviare e/o accedere alle informazioni sul tuo dispositivo

    Cookie, identificatori di dispositivi o altre informazioni possono essere memorizzati o resi accessibili sul tuo dispositivo per le finalità sopra indicate.

  • Annunci e contenuti personalizzati, misurazione di annunci e contenuti, approfondimenti sul pubblico e sviluppo di prodotti

    Gli annunci e i contenuti possono essere personalizzati in base a un profilo. È possibile aggiungere più dati per personalizzare meglio annunci e contenuti. È possibile misurare il rendimento degli annunci e dei contenuti. È possibile ricavare informazioni sul pubblico che ha visto gli annunci e i contenuti. Tali dati possono essere utilizzati per sviluppare o migliorare l'esperienza, i sistemi e il software dell'utente.

Cliccando su “Accetto”, acconsenti all'uso di cookie, identificatori di dispositivo, web beacon o altre tecnologie simili. Puoi modificare le impostazioni nel browser del tuo dispositivo.

Per determinati scopi, è possibile fare affidamento su interessi legali, piuttosto che sul consenso. Puoi approfondire questo argomento consultando la nostra Informativa sulla privacy e sui cookie.